IRIDIUM 33 DEB

Satellite information

Favourite Embed

Satellite Type and Status

DEBRISIN ORBIT

Key statistics

Satellite IRIDIUM 33 DEB at a glance.

Uptime

10101

Days in orbit

Revolutions

≈ 14.7

Per day

Orbit

LEO

Low Earth Orbit

Inclination

86.3

Latest

Satellite identification and parameters

Extended collection of information and parameters for IRIDIUM 33 DEB.

Object identification

Identified? True

Debris? True

Object name: IRIDIUM 33 DEB

International designator: 1997-051MQ

Object number (NORAD): 34870

Object ID (CCSDS): 34870

Country: UNITED STATES OF AMERICA (US)

Current information (Y/N): Y

RCS size: SMALL

Orbital parameters

Period: 97.822 minutes

Inclination: 86.3142 deg

SMA: 7032.614 km

Apoapsis: 666.023 km

Periapsis: 642.934 km

RAAN: 53.096 deg

Eccentricy: 0.0016416

Argument of periapsis: 222.0509 deg

Mean anomaly: 312.7977 deg

Mean motion: 14.72067166 rev/day

Mean motion (dot): 0.00007673 rev/day2

B* drag term: 0.0012144 1/REarth

Two-line elements (TLE)

Creation date: May 10, 2025, 5:27 p.m.

Reference frame: TEME

Reference center: EARTH

Epoch: May 9, 2025, 12:28 p.m. UTC

TLE line 0: 0 IRIDIUM 33 DEB

TLE line 1: 1 34870U 97051MQ 25129.51980650 .00007673 00000-0 12144-2 0 9994

TLE line 2: 2 34870 86.3142 53.0960 0016416 222.0509 312.7977 14.72067166857117

Live tracking on map

Real-time ground track for satellite IRIDIUM 33 DEB.

In-orbit conjunctions

A list of the most updated potential collisions computed for object IRIDIUM 33 DEB.

Target Orbit TCA Probability of collision Miss distance Type
SCOUT B-1 DEB SSO 2024-11-11 23:55:32 0.0005924194 162.0 (m) DEBRIS
CZ-2C R/B SSO 2024-10-12 14:24:46 0.0001936971 767.0 (m) ROCKET BODY

Associated space launch

Iridium provides global mobile telecommunications services using a constellation of 66 low earth orbit satellites in a 86.4° inclined orbit. Although 77 satellites were originally envisioned for the system and spawned the name based on the 77th element in the periodic table, the system has been scaled back. Motorola's Satellite Communications Group designed and manufactured the Iridium satellites with Lockheed Martin providing the LM-700A spacecraft buses.

IRIDIUM 33 DEB was lifted into orbit during the mission ‘Proton-K/17S40 | Iridium 27 to 33’, on board a Proton-K/17S40 space rocket.

The launch took place on Sept. 14, 1997, 1:36 a.m. from 81/23 (81L).

For more information about the launch, click the button.

Launch to space Proton-K/17S40 | Iridium 27 to 33
Proton-K/17S40 | Iridium 27 to 33

Agency: N/A

Status: Launch Successful

Launch date: Sept. 14, 1997, 1:36 a.m. UTC

Rocket: Proton-K/17S40

Launch pad: 81/23 (81L)

Location: Baikonur Cosmodrome, Republic of Kazakhstan

...

Latest news about this satellite

There are no fresh news available about this satellite. Check back as we update our databases every day.


Newsletter sign-up

Weekly statistics, charts and insights to help you stay on top of the space industry.